Tracking 20241 objects as of 25-Jan-2020
HD Live streaming from Space Station
objects crossing your sky now

OPS 3165

Track OPS 3165 now!
OPS 3165 is classified as:


NORAD ID: 8482
Int'l Code: 1975-118A
Perigee: 35,608.0 km
Apogee: 35,876.3 km
Inclination: 8.1 °
Period: 1,433.5 minutes
Semi major axis: 42113 km
RCS: Unknown
Launch date: December 14, 1975
Source: United States (US)
Launch site: AIR FORCE EASTERN TEST RANGE (AFETR)
aabbcc
Your satellite tracking list
Your tracking list is empty




NASA's NSSDC Master Catalog

Two Line Element Set (TLE):
1  8482U 75118A   20025.51877934 +.00000030 +00000-0 +00000-0 0  9990
2  8482 008.1147 297.4934 0031860 317.9881 228.1655 01.00456052002990
Source of the keplerian elements: McCants